Vitalijs Ciganovs

チーフスカウト - Metta/LU
22 2月 2028
火曜日
処理

性格

適応力 (12) 野心 (11) 物議 (15) 忠誠心 (2) プレッシャー耐性 (13) プロ意識 (16) スポーツマンシップ (19) 気質 (16)

プロフィール

指導スタイル 民主型
ライセンス 国内B級
決断力 6
人材管理 6
モチベーション 2
規律 6
仕事満足度
100%
疲労度
0%
役職 チーフスカウト
給与 22.2K 週給
契約 14.03.2030

パフォーマンス

態度 良い
トレーニング効果
26%
選手育成
30%
怪我予防
25%
戦術実行
40%

最近の出来事

補強会議に出席 たった今
補強会議に出席 たった今
補強会議に出席 7日前
補強会議に出席 7日前
補強会議に出席 7日前
補強会議に出席 7日前
補強会議に出席 14日前
補強会議に出席 14日前

監視中

149
選手 クラブ 状態 能力 自信 視察済み 最終確認 最新投票
Maximiliano Rueda Patronato アクティブ 130 / 131 40% 1 30.12.2027 -
Umar Ada Nasarawa United アクティブ 101 / 84 40% 1 30.12.2027 -
Gastón Moreyra Almirante Brown アクティブ 131 / 133 40% 1 29.12.2027 -
David Veliz Güemes アクティブ 93 / 130 40% 1 29.12.2027 -
Duvan Rangel La Equidad アクティブ 125 / 136 40% 1 28.12.2027 情報不足
Augusto Berrondo Tristán Suárez アクティブ 97 / 121 40% 1 28.12.2027 -
Milton Cantero Talleres アクティブ 115 / 95 40% 2 25.12.2027 -
Anton Lukashov Slavia Mozyr アクティブ 97 / 92 40% 1 25.12.2027 -
Enzo Trinidad Colegiales アクティブ 101 / 98 40% 2 21.12.2027 -
Aminu Mohammed Kano Pillars アクティブ 104 / 102 40% 1 20.12.2027 -
Okardi Inikurogha Bayelsa United アクティブ 93 / 75 40% 1 20.12.2027 -
Valentín Serrano Arsenal アクティブ 130 / 102 40% 1 18.12.2027 -
Martín García Atlanta アクティブ 99 / 108 40% 1 18.12.2027 -
Iñaki Larthirigoyen San Telmo アクティブ 102 / 139 40% 1 17.12.2027 -
Franco Benítez Temperley アクティブ 99 / 91 40% 1 17.12.2027 -
Georgy Melkadze Akhmat Grozny アクティブ 117 / 122 40% 1 15.12.2027 -
Rustam Khalnazarov Rostov アクティブ 98 / 97 40% 1 10.12.2027 -
Enzo Hoyos Ferro Carril Oeste アクティブ 118 / 133 40% 1 10.12.2027 -
Gerónimo Tomasetti Temperley アクティブ 95 / 105 40% 1 09.12.2027 -
Kirill Moiseev Rostov アクティブ 106 / 89 40% 1 09.12.2027 -
Suleiman Nasiru Ikorodu City アクティブ 73 / 93 40% 1 06.12.2027 -
Emanuel Iñíguez Morón アクティブ 105 / 125 40% 1 06.12.2027 情報不足
Arturs Vanins Daugavpils アクティブ 83 / 86 30% 1 / 1m 21.07.2027 -
Daniil Kondrakov KDV Tomsk アクティブ 86 / 79 40% 4 31.05.2027 -
Alexandr Dolgov Amkar アクティブ 87 / 91 40% 2 30.05.2027 情報不足
Lorenzo De Leo Renate アクティブ 88 / 107 40% 1 29.05.2027 -
Diego Gambale Audace Cerignola アクティブ 101 / 96 40% 1 29.05.2027 -
Eljon Toci Dolomiti Bellunesi アクティブ 83 / 107 40% 1 28.05.2027 -
Francesco Petito Dolomiti Bellunesi アクティブ 117 / 83 40% 1 28.05.2027 情報不足
Niccolò Corti Pergolettese アクティブ 79 / 99 40% 1 25.05.2027 -
Alexandr Khokhlachev Rotor アクティブ 83 / 103 40% 5 22.05.2027 -
Artem Ntumba Rubin Yalta アクティブ 89 / 85 40% 2 20.05.2027 -
Fortune Bassey Djoliba アクティブ 109 / 110 40% 2 20.05.2027 -
Arseny Vainer Nosta アクティブ 82 / 72 40% 1 16.05.2027 -
Mikhail Gainov Dinamo Stavropol アクティブ 83 / 93 40% 5 15.05.2027 -
Alexandr Shlenkin Dinamo Bryansk アクティブ 67 / 69 40% 6 11.05.2027 却下
Baba N'Diaye Chelyabinsk アクティブ 78 / 99 40% 3 11.05.2027 -
Damir Céter Hamrun Spartans アクティブ 90 / 92 40% 2 07.05.2027 -
Dmitry Kuptsov Spartak Tambov アクティブ 77 / 77 40% 2 05.05.2027 -
Nikita Rozhkov Dinamo Stavropol アクティブ 74 / 87 40% 3 05.05.2027 -
Vladislav Morozov Volgar アクティブ 93 / 100 40% 3 30.04.2027 -
Pedro Cejas Zabbar St. Patrick アクティブ 71 / 105 40% 1 30.04.2027 -
Jere Vrcić Birkirkara アクティブ 93 / 112 40% 3 26.04.2027 -
Timur Zhamaletdinov Arsenal Tula アクティブ 92 / 101 40% 2 26.04.2027 -
Kirill Bogdanets Volna アクティブ 83 / 83 40% 3 25.04.2027 -
Maxim Sergeev Spartak Tambov アクティブ 69 / 67 40% 3 23.04.2027 -
David Davidyan Rotor アクティブ 93 / 91 40% 2 23.04.2027 -
Anton Betyuzhnov Dinamo Vologda アクティブ 78 / 64 40% 3 22.04.2027 -
Bruno Gomes Valletta アクティブ 84 / 105 40% 1 21.04.2027 -
Vladislav Yakovlev Volga アクティブ 94 / 83 40% 1 18.04.2027 -
Sergey Serchenkov Kuban Holding アクティブ 64 / 80 40% 1 17.04.2027 -
Kamran Aliev SKA Khabarovsk アクティブ 110 / 88 40% 7 16.04.2027 -
Denis Rubanov Dinamo Stavropol アクティブ 78 / 77 40% 3 16.04.2027 -
Diamanka Senghor Mosta アクティブ 88 / 111 40% 3 15.04.2027 -
Matvey Ivakhnov Mashuk アクティブ 66 / 77 40% 1 15.04.2027 -
Moussakoye Diallo Stade Malien アクティブ 113 / 90 40% 1 14.04.2027 -
Artem Stepanovich Sevastopol アクティブ 94 / 92 40% 2 11.04.2027 -
Selasie Bakai US Forces Armees アクティブ 65 / 87 40% 1 11.04.2027 -
Maxim Chikanchi Sibir アクティブ 100 / 79 40% 2 08.04.2027 -
Banou Cissé Real Bamako アクティブ 115 / 87 40% 3 07.04.2027 -
Bruno Melnis Liepaja アクティブ 91 / 94 52% 1 / 1m 07.04.2027 -
Joel Yakubu Slovan Liberec アクティブ 94 / 99 52% 1 / 1m 07.04.2027 -
Danil Karpov KAMAZ アクティブ 86 / 89 40% 3 03.04.2027 -
Víctor Guzmán Sporting CP アクティブ 95 / 110 40% 2 28.03.2027 -
Ilja Azyavin Arsenal Tula アクティブ 100 / 90 40% 1 27.03.2027 -
Kenan Dervišagić Floriana アクティブ 109 / 81 40% 3 26.03.2027 観察
Kirill Cheburakov Rostov アクティブ 85 / 73 40% 1 25.03.2027 -
Denis Mironov Shinnik アクティブ 96 / 97 40% 3 20.03.2027 -
Alexandr Saplinov Volga アクティブ 99 / 91 40% 3 18.03.2027 -
Daniil Konoplev Dinamo Bryansk アクティブ 80 / 82 40% 6 18.03.2027 -
Ekain Orobengoa Real Sociedad アクティブ 121 / 118 40% 1 13.03.2027 -
Albert Rusnak FK Senica アクティブ 88 / 97 40% 3 12.03.2027 -
Danila Yezhkov Dinamo Vologda アクティブ 86 / 75 40% 1 05.03.2027 -
Jacobo Alcalde SKA Khabarovsk アクティブ 98 / 101 40% 4 04.03.2027 -
Anderson Gutiérrez Chelyabinsk アクティブ 84 / 83 40% 1 02.03.2027 -
Ilja Stefanovich Leningradets アクティブ 88 / 102 40% 1 26.02.2027 -
Ivan Gulko KAMAZ アクティブ 98 / 98 40% 5 22.02.2027 -
Rashid Magomedov Neftekhimik アクティブ 88 / 101 40% 1 22.02.2027 情報不足
Nikita Pogrebnev Ryazan アクティブ 85 / 75 40% 1 20.02.2027 -
Aziz Gaziev Dinamo St Petersburg アクティブ 63 / 85 40% 2 19.02.2027 -
Aleksej Golijanin Sokol アクティブ 87 / 98 40% 1 18.02.2027 -
Vitaly Dunay (Karpenko) Chaika アクティブ 75 / 91 40% 3 12.02.2027 -
Razhab Magomedov Dinamo Makhachkala アクティブ 103 / 93 40% 2 08.02.2027 -
Ilja Safronov Rotor アクティブ 113 / 90 40% 3 06.02.2027 -
Alexandr Konev Salyut アクティブ 80 / 71 40% 1 05.02.2027 -
Giancarlo Mosta アクティブ 65 / 105 40% 1 05.02.2027 -
Yegor Ponomarev Tver アクティブ 73 / 75 40% 2 01.02.2027 -
Vladislav Agalakov Metallurg アクティブ 72 / 86 40% 1 18.01.2027 -
Andrey Okladnikov Yenisey アクティブ 83 / 77 40% 3 29.12.2026 -
Magomed Abakarov Rotor アクティブ 90 / 82 40% 2 29.12.2026 -
Maxim Kutovoy Salyut アクティブ 75 / 71 40% 3 28.12.2026 -
Andre Green AVS アクティブ 126 / 107 40% 2 27.12.2026 -
Gocha Gogrichiani Volna アクティブ 71 / 65 40% 1 27.12.2026 -
Anton Gurylev Pobeda アクティブ 70 / 77 40% 1 26.12.2026 -
Ilja Gruznov Khimik アクティブ 83 / 84 40% 3 25.12.2026 -
Bertrand Fourrier Ural アクティブ 104 / 95 40% 1 23.12.2026 -
Nikita Kuzin Kaluga アクティブ 90 / 97 40% 1 23.12.2026 -
Omar Popov Dinamo St Petersburg アクティブ 81 / 73 40% 2 22.12.2026 -
Magomed Nasibov Pobeda アクティブ 75 / 85 40% 2 20.12.2026 -
Tamaz Topuria Mashuk アクティブ 92 / 75 40% 2 20.12.2026 -
Denis Yakuba Dinamo Stavropol アクティブ 99 / 109 40% 1 15.12.2026 情報不足
Alexey Shulgin Spartak Tambov アクティブ 73 / 74 40% 1 13.12.2026 -
Nikita Yershov Kosmos アクティブ 73 / 81 40% 1 11.12.2026 -
Danil Polyakh Rubin Yalta アクティブ 73 / 86 40% 1 11.12.2026 -
Daniil Arsentjev Orel アクティブ 65 / 60 40% 1 10.12.2026 -
Ivan Kudryashov Astrakhan アクティブ 91 / 82 40% 1 10.12.2026 -
Magomednabi Yagjaev Nart アクティブ 75 / 83 40% 1 10.12.2026 -
Nikita Kireev Dinamo Vologda アクティブ 93 / 84 40% 1 09.12.2026 -
Ismail Dibirov Dinamo Kirov アクティブ 75 / 75 40% 1 08.12.2026 -
Franklin Sasere Birkirkara アクティブ 73 / 112 40% 1 04.12.2026 -
Pavel Popov Volna アクティブ 93 / 71 40% 2 01.12.2026 -
Danil Akhatov Ufa アクティブ 83 / 103 40% 1 01.12.2026 -
Daniil Agureev Amkar アクティブ 97 / 94 40% 3 30.11.2026 -
Oleg Smirnov Veles アクティブ 96 / 96 40% 1 29.11.2026 -
Leo Goglichidze Rodina アクティブ 105 / 118 40% 1 27.11.2026 -
Oleg Isaenko Arsenal Tula アクティブ 102 / 90 40% 1 27.11.2026 -
Danil Poluboyarinov Volgar アクティブ 91 / 100 40% 2 19.11.2026 -
Rassambek Akhmatov Rotor アクティブ 101 / 110 40% 1 19.11.2026 -
Batraz Gurtsiev Alania アクティブ 98 / 82 40% 1 18.11.2026 -
Daouda Natama Minsk アクティブ 99 / 103 40% 2 14.11.2026 -
Ildi Gruda Egnatia Rrogozhinë アクティブ 104 / 122 40% 1 11.11.2026 -
Surkhaikhan Abdullaev KAMAZ アクティブ 86 / 83 40% 1 11.11.2026 -
Mikhail Zabotkin Druzhba アクティブ 68 / 65 40% 1 06.11.2026 -
Vladislav Yatskevich BATE アクティブ 111 / 112 40% 1 04.11.2026 -
Sergey Iljin Kaluga アクティブ 84 / 89 40% 1 03.11.2026 -
Ilja Grischenko Kaluga アクティブ 75 / 82 40% 1 29.10.2026 -
Ivan Selemenev Mashuk アクティブ 86 / 73 40% 1 28.10.2026 -
Maksym Shevchenko Baranovichi アクティブ 84 / 92 40% 1 20.10.2026 -
Andrey Domotsev Mashuk アクティブ 72 / 79 40% 1 15.10.2026 -
Zakhar Tarasenko Veles アクティブ 92 / 95 40% 1 15.10.2026 -
Steven Alfred Torpedo-BelAZ アクティブ 94 / 92 40% 1 07.10.2026 -
Job Ochieng Real Sociedad アクティブ 104 / 109 40% 1 06.10.2026 -
Ilja Moseichuk Kuban アクティブ 82 / 104 40% 1 06.10.2026 -
Denis Faizullin Murom アクティブ 76 / 91 40% 1 05.10.2026 -
Grenik Petrosyan Torpedo-BelAZ アクティブ 79 / 95 40% 1 02.10.2026 -
Alexey Antilevskiy Slavia Mozyr アクティブ 103 / 103 40% 1 28.09.2026 -
Maxim Kravtsov Neman アクティブ 97 / 94 40% 1 28.09.2026 -
Tobías Ganduglia Independiente Rivadavia アクティブ 109 / 109 40% 1 26.09.2026 -
Nathan Ordaz Metalist アクティブ 118 / 101 40% 1 20.09.2026 -
Alexandr Butko Isloch アクティブ 88 / 89 40% 1 19.09.2026 -
Agustín Bianciotti Metropolitanos アクティブ 80 / 89 40% 1 12.09.2026 -
Macaulay Langstaff Millwall アクティブ 92 / 96 40% 1 11.09.2026 -
Leonard Chatelin Gweth Dinamo Minsk アクティブ 90 / 93 40% 1 11.09.2026 -
Ignacio Sabatini Gimnasia y Esgrima アクティブ 122 / 89 40% 1 08.09.2026 -
Vladislav Lozhkin Dinamo Brest アクティブ 91 / 94 40% 1 31.08.2026 -
Zakhar Chervyakov Vitebsk アクティブ 73 / 80 40% 1 31.08.2026 -
Alexis Dulón Huracán アクティブ 114 / 80 40% 1 19.08.2026 -
Mateo Seoane Gimnasia La Plata アクティブ 116 / 105 40% 1 10.08.2026 -
Mario García Racing Santander アクティブ 132 / 136 40% 1 10.08.2026 -